Flag for U.S.A. Weather past 2 weeks in Anaheim, California, U.S.A.

Now
65 °F

Overcast.


Feels Like: 65 °F
Forecast: 61 / 81 °F
Wind: No wind

Location: Fullerton Municipal Airport

Current Time: Oct 21, 2014 at 4:09:57 AM

Latest Report: Oct 21, 2014 at 3:53 AM


Visibility: 10 mi

Pressure: 29.88 "Hg

Humidity: 85%

Dew point: 60 °F

Location of AnaheimLocation

Historic Weather in Anaheim — Graph

°F

Anaheim temperature yesterday

Maximum temperature yesterday: 79 °F (at 2:53 PM)
Minimum temperature yesterday: 63 °F (at 4:53 AM)
Average temperature yesterday: 70 °F

Past Weeks' High & Low Weather Summary

 TemperatureHumidityPressure
High95 °F (Oct 7, 1:53 PM)87% (Oct 13, 3:53 AM)30.01 "Hg (Oct 13, 3:53 AM)
Low60 °F (Oct 19, 6:53 AM)10% (Oct 6, 12:53 PM)29.78 "Hg (Oct 8, 4:53 PM)
Average72 °F64%29.90 "Hg
* Reported Oct 6 2:53 AM — Oct 21 2:53 AM, Anaheim, Weather by CustomWeather, © 2014

Note: Actual official high and low records may vary slightly from our data, if they occured in-between our weather recording intervals... More about our weather records

Advertising

Anaheim weather history for previous 24 hours

 ConditionsComfort  
Time TempWeatherWind HumidityBarometerVisibility
2:53 AM
Oct 21
66 °FPassing clouds.7 mph81%29.87 "Hg10 mi
1:53 AM67 °FOvercast.3 mph81%29.90 "Hg10 mi
12:53 AM66 °FPassing clouds.No wind81%29.90 "Hg10 mi
11:53 PM
Oct 20
66 °FClear.3 mph81%29.89 "Hg10 mi
10:53 PM66 °FClear.No wind81%29.89 "Hg10 mi
9:53 PM68 °FClear.No wind76%29.90 "Hg10 mi
8:53 PM68 °FClear.No wind78%29.88 "Hg10 mi
7:53 PM69 °FMild.3 mph73%29.88 "Hg10 mi
6:53 PM71 °FSunny.6 mph66%29.86 "Hg10 mi
5:53 PM72 °FSunny.5 mph66%29.84 "Hg10 mi
4:53 PM75 °FSunny.7 mph60%29.85 "Hg10 mi
3:53 PM77 °FSunny.8 mph58%29.85 "Hg10 mi
2:53 PM79 °FSunny.5 mph52%29.85 "Hg10 mi
1:53 PM78 °FSunny.6 mph52%29.87 "Hg10 mi
12:53 PM75 °FSunny.No wind60%29.90 "Hg10 mi
11:53 AM74 °FPassing clouds.6 mph62%29.93 "Hg10 mi
10:53 AM72 °FPartly sunny.No wind64%29.94 "Hg10 mi
9:53 AM73 °FOvercast.3 mph62%29.93 "Hg10 mi
8:53 AM69 °FOvercast.No wind73%29.93 "Hg10 mi
7:53 AM67 °FOvercast.No wind81%29.90 "Hg7 mi
6:53 AM66 °FOvercast.3 mph81%29.89 "Hg8 mi
5:53 AM63 °FOvercast.No wind84%29.89 "Hg10 mi
4:53 AM63 °FClear.No wind84%29.87 "Hg10 mi
Weather by CustomWeather, © 2014

See weather overviewHow to use our weather pages